Lakeville, MN

10:06 PM CDT on May 25, 2017 (GMT -0500)
Airlake

Weather History for KLVN - August, 2012

Change the Weather History Date:

Thursday, August 23, 2012

  Actual Average Record
Temperature  
Mean Temperature 72 °F -  
Max Temperature 82 °F 78 °F 98 °F (1949)
Min Temperature 62 °F 57 °F 44 °F (2005)
Cooling Degree Days 7    
Growing Degree Days 22 (Base 50)    
Moisture  
Dew Point 62 °F    
Average Humidity 70    
Maximum Humidity 94    
Minimum Humidity 54    
Precipitation  
Precipitation 0.33 in - - ()
Sea Level Pressure  
Sea Level Pressure 29.87 in    
Wind  
Wind Speed 4 mph (South)    
Max Wind Speed 16 mph    
Max Gust Speed 23 mph    
Visibility 10 miles    
Events Rain , Thunderstorm    
Averages and records for this station are not official NWS values.
T = Trace of Precipitation, MM = Missing Value Source: NWS Daily Summary

Daily Weather History Graph

Daily Weather History Graph

Search for Another Location

Airport or City:

Trip Planner

Search our weather history database for the weather conditions in past years. The results will help you decide how hot, cold, wet, or windy it might be!

Date:

Astronomy

Aug. 23, 2012 Rise Set
Actual Time 6:25 AM CDT 8:04 PM CDT
Civil Twilight 5:54 AM CDT 8:35 PM CDT
Nautical Twilight 5:17 AM CDT 9:12 PM CDT
Astronomical Twilight 4:36 AM CDT 9:52 PM CDT
Moon 1:33 PM CDT (8/23) 11:13 PM CDT (8/23)
Length of Visible Light 14h 40m
Length of Day
13h 39m
Waxing Crescent, 40% of the Moon is Illuminated
Aug 23
Waxing Crescent
Aug 24
First Quarter
Aug 31
Full
Sep 8
Last Quarter
Sep 15
New

Hourly Weather History & Observations

Time (CDT) Temp. Heat Index Dew Point Humidity Pressure Visibility Wind Dir Wind Speed Gust Speed Precip Events Conditions
12:12 AM 64.4 °F - 62.6 °F 94% 29.91 in 10.0 mi Calm Calm - N/A   Clear
12:33 AM 66.2 °F - 62.6 °F 88% 29.91 in 10.0 mi Calm Calm - N/A   Scattered Clouds
12:52 AM 66.2 °F - 60.8 °F 83% 29.90 in 10.0 mi South 3.5 mph - N/A   Scattered Clouds
1:12 AM 66.2 °F - 60.8 °F 83% 29.90 in 10.0 mi South 3.5 mph - N/A   Scattered Clouds
1:33 AM 66.2 °F - 60.8 °F 83% 29.90 in 10.0 mi Calm Calm - N/A   Scattered Clouds
1:52 AM 64.4 °F - 60.8 °F 88% 29.89 in 10.0 mi SSE 3.5 mph - N/A   Clear
2:12 AM 64.4 °F - 60.8 °F 88% 29.89 in 10.0 mi Calm Calm - N/A   Scattered Clouds
2:33 AM 64.4 °F - 60.8 °F 88% 29.88 in 10.0 mi South 3.5 mph - N/A   Scattered Clouds
2:52 AM 64.4 °F - 60.8 °F 88% 29.88 in 10.0 mi Calm Calm - N/A   Scattered Clouds
3:12 AM 62.6 °F - 59.0 °F 88% 29.89 in 10.0 mi Calm Calm - N/A   Scattered Clouds
3:33 AM 62.6 °F - 60.8 °F 94% 29.89 in 10.0 mi Calm Calm - N/A   Scattered Clouds
3:52 AM 64.4 °F - 59.0 °F 83% 29.89 in 10.0 mi South 5.8 mph - N/A   Scattered Clouds
4:12 AM 66.2 °F - 59.0 °F 78% 29.90 in 10.0 mi SSW 4.6 mph - N/A Thunderstorm Scattered Clouds
4:32 AM 68.0 °F - 59.0 °F 73% 29.91 in 10.0 mi SW 4.6 mph - N/A   Scattered Clouds
4:52 AM 66.2 °F - 57.2 °F 73% 29.91 in 10.0 mi SSW 4.6 mph - N/A   Scattered Clouds
5:12 AM 68.0 °F - 57.2 °F 68% 29.90 in 10.0 mi SSW 3.5 mph - N/A   Clear
5:32 AM 68.0 °F - 57.2 °F 68% 29.90 in 10.0 mi WSW 3.5 mph - N/A   Clear
5:53 AM 68.0 °F - 57.2 °F 68% 29.89 in 10.0 mi South 6.9 mph - N/A   Clear
6:13 AM 66.2 °F - 57.2 °F 73% 29.89 in 10.0 mi South 5.8 mph - N/A   Clear
6:32 AM 68.0 °F - 57.2 °F 68% 29.90 in 10.0 mi SSW 3.5 mph - N/A   Clear
6:53 AM 66.2 °F - 57.2 °F 73% 29.90 in 10.0 mi South 4.6 mph - N/A   Clear
7:13 AM 66.2 °F - 57.2 °F 73% 29.90 in 10.0 mi South 5.8 mph - N/A   Clear
7:32 AM 66.2 °F - 57.2 °F 73% 29.91 in 10.0 mi South 5.8 mph - N/A   Clear
7:53 AM 66.2 °F - 57.2 °F 73% 29.91 in 10.0 mi South 3.5 mph - N/A   Clear
8:13 AM 66.2 °F - 59.0 °F 78% 29.91 in 10.0 mi Calm Calm - N/A   Clear
8:32 AM 66.2 °F - 57.2 °F 73% 29.90 in 10.0 mi SSE 4.6 mph - N/A   Clear
8:53 AM 66.2 °F - 57.2 °F 73% 29.90 in 10.0 mi South 4.6 mph - N/A   Clear
9:12 AM 66.2 °F - 59.0 °F 78% 29.90 in 10.0 mi South 6.9 mph - N/A   Clear
9:32 AM 66.2 °F - 57.2 °F 73% 29.88 in 10.0 mi SSE 9.2 mph - N/A   Clear
9:53 AM 68.0 °F - 57.2 °F 68% 29.88 in 10.0 mi SSE 9.2 mph - N/A   Clear
10:12 AM 69.8 °F - 59.0 °F 68% 29.89 in 10.0 mi South 8.1 mph - N/A   Clear
10:33 AM 71.6 °F - 60.8 °F 69% 29.91 in 10.0 mi SW 3.5 mph - N/A   Clear
10:52 AM 71.6 °F - 60.8 °F 69% 29.90 in 10.0 mi South 5.8 mph - N/A   Clear
11:13 AM 73.4 °F - 62.6 °F 69% 29.89 in 10.0 mi South 6.9 mph - N/A   Clear
11:33 AM 73.4 °F - 62.6 °F 69% 29.91 in 10.0 mi SSW 3.5 mph - N/A   Clear
11:52 AM 75.2 °F - 62.6 °F 65% 29.90 in 10.0 mi South 5.8 mph - N/A   Clear
12:13 PM 75.2 °F - 64.4 °F 69% 29.90 in 10.0 mi South 4.6 mph - N/A   Clear
12:33 PM 78.8 °F - 64.4 °F 61% 29.90 in 10.0 mi South 5.8 mph - N/A   Clear
12:52 PM 78.8 °F - 66.2 °F 65% 29.90 in 10.0 mi South 6.9 mph - N/A   Clear
1:13 PM 78.8 °F - 66.2 °F 65% 29.89 in 10.0 mi SSE 6.9 mph - N/A   Clear
1:32 PM 80.6 °F 82.7 °F 66.2 °F 61% 29.88 in 10.0 mi South 9.2 mph 16.1 mph N/A   Clear
1:52 PM 80.6 °F 82.7 °F 66.2 °F 61% 29.87 in 10.0 mi South 8.1 mph 19.6 mph N/A   Clear
2:12 PM 82.4 °F 84.6 °F 66.2 °F 58% 29.87 in 10.0 mi South 10.4 mph - N/A   Clear
2:32 PM 80.6 °F 82.7 °F 66.2 °F 61% 29.87 in 10.0 mi South 9.2 mph - N/A   Clear
2:53 PM 80.6 °F 82.3 °F 64.4 °F 58% 29.88 in 7.0 mi South 5.8 mph - N/A   Clear
3:12 PM 80.6 °F 82.3 °F 64.4 °F 58% 29.87 in 10.0 mi South 8.1 mph - N/A   Scattered Clouds
3:33 PM 80.6 °F 82.3 °F 64.4 °F 58% 29.87 in 10.0 mi South 3.5 mph - N/A   Clear
3:52 PM 82.4 °F 84.6 °F 66.2 °F 58% 29.86 in 10.0 mi South 6.9 mph - N/A   Clear
4:13 PM 82.4 °F 84.6 °F 66.2 °F 58% 29.87 in 7.0 mi South 5.8 mph - N/A   Clear
4:32 PM 82.4 °F 85.4 °F 68.0 °F 62% 29.86 in 10.0 mi SSE 4.6 mph - N/A   Clear
4:52 PM 82.4 °F 84.6 °F 66.2 °F 58% 29.85 in 10.0 mi SSE 5.8 mph - N/A   Clear
5:13 PM 82.4 °F 85.4 °F 68.0 °F 62% 29.84 in 7.0 mi SSE 5.8 mph - N/A   Clear
5:32 PM 82.4 °F 84.6 °F 66.2 °F 58% 29.84 in 7.0 mi SSE 5.8 mph - N/A   Clear
5:52 PM 82.4 °F 84.6 °F 66.2 °F 58% 29.83 in 10.0 mi South 5.8 mph - N/A   Clear
6:13 PM 82.4 °F 84.6 °F 66.2 °F 58% 29.82 in 10.0 mi South 5.8 mph - N/A   Clear
6:32 PM 82.4 °F 83.9 °F 64.4 °F 54% 29.80 in 10.0 mi South 8.1 mph - N/A   Clear
6:52 PM 80.6 °F 82.3 °F 64.4 °F 58% 29.80 in 10.0 mi South 8.1 mph - N/A   Clear
7:13 PM 78.8 °F - 62.6 °F 57% 29.80 in 10.0 mi South 6.9 mph - N/A   Clear
7:32 PM 78.8 °F - 62.6 °F 57% 29.81 in 10.0 mi South 6.9 mph - N/A   Clear
7:52 PM 77.0 °F - 62.6 °F 61% 29.80 in 7.0 mi SSE 4.6 mph - N/A   Clear
8:13 PM 75.2 °F - 62.6 °F 65% 29.81 in 10.0 mi SSE 4.6 mph - N/A Thunderstorm Mostly Cloudy
8:32 PM 73.4 °F - 62.6 °F 69% 29.80 in 7.0 mi South 4.6 mph - N/A   Scattered Clouds
8:53 PM 75.2 °F - 62.6 °F 65% 29.81 in 10.0 mi South 8.1 mph - N/A Thunderstorm Clear
9:12 PM 75.2 °F - 60.8 °F 61% 29.82 in 10.0 mi South 9.2 mph - N/A   Clear
9:33 PM 75.2 °F - 60.8 °F 61% 29.79 in 10.0 mi South 10.4 mph - N/A Thunderstorm Clear
9:53 PM 75.2 °F - 60.8 °F 61% 29.81 in 10.0 mi SSW 3.5 mph - N/A Thunderstorm Clear
10:12 PM 75.2 °F - 60.8 °F 61% 29.83 in 10.0 mi South 3.5 mph - N/A   Scattered Clouds
10:33 PM 73.4 °F - 62.6 °F 69% 29.84 in 10.0 mi NW 10.4 mph 19.6 mph N/A Thunderstorm Mostly Cloudy
10:52 PM 73.4 °F - 64.4 °F 73% 29.87 in 10.0 mi West 5.8 mph 10.4 mph N/A Rain , Thunderstorm Light Thunderstorms and Rain
11:12 PM 69.8 °F - 64.4 °F 83% 29.89 in 10.0 mi WSW 16.1 mph 23.0 mph 0.01 in Rain , Thunderstorm Light Thunderstorms and Rain
11:33 PM 64.4 °F - 60.8 °F 88% 29.92 in 10.0 mi SW 10.4 mph 23.0 mph 0.12 in Rain , Thunderstorm Thunderstorms and Rain
11:52 PM 62.6 °F - 60.8 °F 94% 29.91 in 7.0 mi WSW 6.9 mph 18.4 mph 0.33 in Rain , Thunderstorm Heavy Thunderstorms and Rain